Time,TemperatureF,DewpointF,PressureIn,WindDirection,WindDirectionDegrees,WindSpeedMPH,WindSpeedGustMPH,Humidity,HourlyPrecipIn,Conditions,Clouds,dailyrainin,SoftwareType,DateUTC
2013-01-08 00:23:00,35.3,30.0,29.98,WSW,241,7.0,-999.0,80,-99.99,,,0.01,weatherlink.com 1.10,2013-01-08 05:23:00,
2013-01-08 00:39:00,35.3,30.0,29.99,WSW,248,7.0,-999.0,80,-99.99,,,0.01,weatherlink.com 1.10,2013-01-08 05:39:00,
2013-01-08 00:54:00,35.2,30.0,29.99,West,267,5.0,-999.0,80,-99.99,,,0.01,weatherlink.com 1.10,2013-01-08 05:54:00,
2013-01-08 01:09:00,35.1,30.0,29.99,WSW,250,11.0,-999.0,80,-99.99,,,0.01,weatherlink.com 1.10,2013-01-08 06:09:00,
2013-01-08 01:24:00,35.0,29.0,30.00,WSW,257,11.0,-999.0,79,-99.99,,,0.01,weatherlink.com 1.10,2013-01-08 06:24:00,
2013-01-08 01:39:00,34.9,29.0,30.00,WSW,253,10.0,-999.0,79,-99.99,,,0.01,weatherlink.com 1.10,2013-01-08 06:39:00,
2013-01-08 01:54:00,34.7,29.0,30.00,West,261,9.0,-999.0,78,-99.99,,,0.01,weatherlink.com 1.10,2013-01-08 06:54:00,
2013-01-08 02:10:00,34.4,28.0,30.01,WSW,250,4.0,-999.0,78,-99.99,,,0.01,weatherlink.com 1.10,2013-01-08 07:10:00,
2013-01-08 02:24:00,34.4,28.0,30.01,West,263,10.0,-999.0,78,-99.99,,,0.01,weatherlink.com 1.10,2013-01-08 07:24:00,
2013-01-08 02:39:00,34.4,28.0,30.02,WSW,252,10.0,-999.0,78,-99.99,,,0.01,weatherlink.com 1.10,2013-01-08 07:39:00,
2013-01-08 02:54:00,34.4,28.0,30.03,WSW,245,7.0,-999.0,78,-99.99,,,0.01,weatherlink.com 1.10,2013-01-08 07:54:00,
2013-01-08 03:09:00,34.2,28.0,30.04,WSW,250,7.0,-999.0,78,-99.99,,,0.01,weatherlink.com 1.10,2013-01-08 08:09:00,
2013-01-08 03:24:00,33.9,28.0,30.04,WSW,255,6.0,-999.0,78,-99.99,,,0.01,weatherlink.com 1.10,2013-01-08 08:24:00,
2013-01-08 03:39:00,33.7,28.0,30.04,WSW,258,4.0,-999.0,78,-99.99,,,0.01,weatherlink.com 1.10,2013-01-08 08:39:00,
2013-01-08 03:54:00,33.5,27.0,30.05,WSW,256,6.0,-999.0,78,-99.99,,,0.01,weatherlink.com 1.10,2013-01-08 08:54:00,
2013-01-08 04:09:00,33.2,27.0,30.05,WSW,249,4.0,-999.0,78,-99.99,,,0.01,weatherlink.com 1.10,2013-01-08 09:09:00,
2013-01-08 04:24:00,32.6,27.0,30.06,West,261,3.0,-999.0,79,-99.99,,,0.01,weatherlink.com 1.10,2013-01-08 09:24:00,
2013-01-08 04:39:00,32.5,27.0,30.06,West,279,0.0,-999.0,80,-99.99,,,0.01,weatherlink.com 1.10,2013-01-08 09:39:00,
2013-01-08 04:54:00,30.9,25.0,30.07,West,279,1.0,-999.0,80,-99.99,,,0.01,weatherlink.com 1.10,2013-01-08 09:54:00,
2013-01-08 05:09:00,28.9,24.0,30.08,West,279,0.0,-999.0,82,-99.99,,,0.01,weatherlink.com 1.10,2013-01-08 10:09:00,
2013-01-08 05:24:00,27.5,23.0,30.08,West,279,0.0,-999.0,83,-99.99,,,0.01,weatherlink.com 1.10,2013-01-08 10:24:00,
2013-01-08 05:39:00,27.7,24.0,30.08,West,279,1.0,-999.0,85,-99.99,,,0.01,weatherlink.com 1.10,2013-01-08 10:39:00,
2013-01-08 05:54:00,27.8,24.0,30.09,WNW,283,3.0,-999.0,85,-99.99,,,0.01,weatherlink.com 1.10,2013-01-08 10:54:00,
2013-01-08 06:09:00,28.1,25.0,30.10,WNW,283,2.0,-999.0,86,-99.99,,,0.01,weatherlink.com 1.10,2013-01-08 11:09:00,
2013-01-08 06:24:00,28.5,25.0,30.10,WNW,283,0.0,-999.0,85,-99.99,,,0.01,weatherlink.com 1.10,2013-01-08 11:24:00,
2013-01-08 06:39:00,29.0,25.0,30.11,WNW,283,1.0,-999.0,85,-99.99,,,0.01,weatherlink.com 1.10,2013-01-08 11:39:00,
2013-01-08 06:54:00,29.6,26.0,30.12,WNW,283,0.0,-999.0,85,-99.99,,,0.01,weatherlink.com 1.10,2013-01-08 11:54:00,
2013-01-08 07:09:00,29.1,25.0,30.12,WNW,283,0.0,-999.0,84,-99.99,,,0.01,weatherlink.com 1.10,2013-01-08 12:09:00,
2013-01-08 07:24:00,28.8,25.0,30.13,WNW,283,0.0,-999.0,84,-99.99,,,0.01,weatherlink.com 1.10,2013-01-08 12:24:00,
2013-01-08 07:39:00,28.1,24.0,30.14,WNW,283,0.0,-999.0,84,-99.99,,,0.01,weatherlink.com 1.10,2013-01-08 12:39:00,
2013-01-08 07:54:00,25.6,22.0,30.15,WNW,283,0.0,-999.0,85,-99.99,,,0.01,weatherlink.com 1.10,2013-01-08 12:54:00,
2013-01-08 08:09:00,24.3,21.0,30.16,WNW,283,0.0,-999.0,86,-99.99,,,0.01,weatherlink.com 1.10,2013-01-08 13:09:00,
2013-01-08 08:24:00,23.4,20.0,30.17,WNW,283,0.0,-999.0,88,-99.99,,,0.01,weatherlink.com 1.10,2013-01-08 13:24:00,
2013-01-08 08:54:00,24.5,22.0,30.18,WNW,283,0.0,-999.0,88,-99.99,,,0.01,weatherlink.com 1.10,2013-01-08 13:54:00,
2013-01-08 09:09:00,24.1,21.0,30.20,WNW,283,0.0,-999.0,88,-99.99,,,0.00,weatherlink.com 1.10,2013-01-08 14:09:00,
2013-01-08 09:24:00,25.2,22.0,30.20,WNW,283,0.0,-999.0,89,-99.99,,,0.00,weatherlink.com 1.10,2013-01-08 14:24:00,
2013-01-08 09:39:00,26.7,24.0,30.21,WNW,283,0.0,-999.0,89,-99.99,,,0.00,weatherlink.com 1.10,2013-01-08 14:39:00,
2013-01-08 09:54:00,27.6,25.0,30.21,WNW,283,0.0,-999.0,88,-99.99,,,0.00,weatherlink.com 1.10,2013-01-08 14:54:00,
2013-01-08 10:09:00,30.6,27.0,30.22,WNW,283,0.0,-999.0,86,-99.99,,,0.00,weatherlink.com 1.10,2013-01-08 15:09:00,
2013-01-08 10:39:00,32.7,27.0,30.21,WNW,283,2.0,-999.0,78,-99.99,,,0.00,weatherlink.com 1.10,2013-01-08 15:39:00,
2013-01-08 10:54:00,33.0,27.0,30.22,WNW,283,0.0,-999.0,78,-99.99,,,0.00,weatherlink.com 1.10,2013-01-08 15:54:00,
2013-01-08 11:09:00,34.7,27.0,30.22,WNW,283,0.0,-999.0,74,-99.99,,,0.00,weatherlink.com 1.10,2013-01-08 16:09:00,
2013-01-08 11:24:00,35.1,27.0,30.22,WNW,283,0.0,-999.0,73,-99.99,,,0.00,weatherlink.com 1.10,2013-01-08 16:24:00,
2013-01-08 11:39:00,34.2,27.0,30.21,WNW,283,1.0,-999.0,75,-99.99,,,0.00,weatherlink.com 1.10,2013-01-08 16:39:00,
2013-01-08 11:54:00,35.1,28.0,30.21,WNW,283,0.0,-999.0,75,-99.99,,,0.00,weatherlink.com 1.10,2013-01-08 16:54:00,
2013-01-08 12:10:00,37.4,29.0,30.21,WNW,283,2.0,-999.0,71,-99.99,,,0.00,weatherlink.com 1.10,2013-01-08 17:10:00,
2013-01-08 12:25:00,39.5,30.0,30.20,WNW,283,0.0,-999.0,69,-99.99,,,0.00,weatherlink.com 1.10,2013-01-08 17:25:00,
2013-01-08 12:40:00,38.8,29.0,30.20,WNW,283,0.0,-999.0,67,-99.99,,,0.00,weatherlink.com 1.10,2013-01-08 17:40:00,
2013-01-08 12:55:00,39.2,29.0,30.20,WNW,283,2.0,-999.0,66,-99.99,,,0.00,weatherlink.com 1.10,2013-01-08 17:55:00,
2013-01-08 13:10:00,39.3,29.0,30.21,WNW,283,1.0,-999.0,66,-99.99,,,0.00,weatherlink.com 1.10,2013-01-08 18:10:00,
2013-01-08 13:25:00,40.9,29.0,30.20,WNW,283,0.0,-999.0,64,-99.99,,,0.00,weatherlink.com 1.10,2013-01-08 18:25:00,
2013-01-08 13:40:00,40.3,29.0,30.20,WNW,283,0.0,-999.0,64,-99.99,,,0.00,weatherlink.com 1.10,2013-01-08 18:40:00,
2013-01-08 13:55:00,40.4,29.0,30.20,WNW,283,0.0,-999.0,64,-99.99,,,0.00,weatherlink.com 1.10,2013-01-08 18:55:00,
2013-01-08 14:10:00,41.3,29.0,30.20,WNW,283,0.0,-999.0,62,-99.99,,,0.00,weatherlink.com 1.10,2013-01-08 19:10:00,
2013-01-08 14:25:00,39.7,29.0,30.20,WNW,283,0.0,-999.0,66,-99.99,,,0.00,weatherlink.com 1.10,2013-01-08 19:25:00,
2013-01-08 14:40:00,38.4,29.0,30.20,South,184,5.0,-999.0,68,-99.99,,,0.00,weatherlink.com 1.10,2013-01-08 19:40:00,
2013-01-08 15:10:00,38.5,29.0,30.21,South,176,4.0,-999.0,68,-99.99,,,0.00,weatherlink.com 1.10,2013-01-08 20:10:00,
2013-01-08 15:25:00,39.0,29.0,30.21,South,177,0.0,-999.0,68,-99.99,,,0.00,weatherlink.com 1.10,2013-01-08 20:25:00,
2013-01-08 15:40:00,38.6,28.0,30.21,South,177,2.0,-999.0,67,-99.99,,,0.00,weatherlink.com 1.10,2013-01-08 20:40:00,
2013-01-08 15:55:00,35.5,27.0,30.21,South,177,0.0,-999.0,71,-99.99,,,0.00,weatherlink.com 1.10,2013-01-08 20:55:00,
2013-01-08 16:10:00,35.2,27.0,30.22,South,177,0.0,-999.0,73,-99.99,,,0.00,weatherlink.com 1.10,2013-01-08 21:10:00,
2013-01-08 16:25:00,33.9,26.0,30.22,South,176,0.0,-999.0,73,-99.99,,,0.00,weatherlink.com 1.10,2013-01-08 21:25:00,
2013-01-08 16:40:00,33.8,27.0,30.21,SE,146,3.0,-999.0,76,-99.99,,,0.00,weatherlink.com 1.10,2013-01-08 21:40:00,
2013-01-08 16:55:00,35.8,28.0,30.21,SE,144,4.0,-999.0,74,-99.99,,,0.00,weatherlink.com 1.10,2013-01-08 21:55:00,
2013-01-08 17:10:00,35.3,28.0,30.22,SE,132,3.0,-999.0,76,-99.99,,,0.00,weatherlink.com 1.10,2013-01-08 22:10:00,
2013-01-08 17:25:00,35.4,30.0,30.21,SE,134,5.0,-999.0,79,-99.99,,,0.00,weatherlink.com 1.10,2013-01-08 22:25:00,
2013-01-08 17:55:00,34.3,29.0,30.21,SSE,153,4.0,-999.0,81,-99.99,,,0.00,weatherlink.com 1.10,2013-01-08 22:55:00,
2013-01-08 18:10:00,33.8,30.0,30.21,SE,132,6.0,-999.0,84,-99.99,,,0.00,weatherlink.com 1.10,2013-01-08 23:10:00,
2013-01-08 18:25:00,33.4,29.0,30.21,SE,132,5.0,-999.0,85,-99.99,,,0.00,weatherlink.com 1.10,2013-01-08 23:25:00,
2013-01-08 18:40:00,32.5,29.0,30.21,ESE,123,4.0,-999.0,86,-99.99,,,0.00,weatherlink.com 1.10,2013-01-08 23:40:00,
2013-01-08 18:55:00,32.8,30.0,30.21,SE,132,5.0,-999.0,88,-99.99,,,0.00,weatherlink.com 1.10,2013-01-08 23:55:00,
2013-01-08 19:10:00,33.4,31.0,30.20,ESE,119,6.0,-999.0,89,-99.99,,,0.00,weatherlink.com 1.10,2013-01-09 00:10:00,
2013-01-08 19:25:00,34.1,32.0,30.20,SE,136,9.0,-999.0,90,-99.99,,,0.00,weatherlink.com 1.10,2013-01-09 00:25:00,
2013-01-08 19:40:00,34.4,32.0,30.19,ESE,117,7.0,-999.0,90,-99.99,,,0.00,weatherlink.com 1.10,2013-01-09 00:40:00,
2013-01-08 19:55:00,34.1,32.0,30.18,SE,128,5.0,-999.0,90,-99.99,,,0.00,weatherlink.com 1.10,2013-01-09 00:55:00,
2013-01-08 20:10:00,33.8,31.0,30.18,ESE,119,5.0,-999.0,90,-99.99,,,0.00,weatherlink.com 1.10,2013-01-09 01:10:00,
2013-01-08 20:25:00,34.0,32.0,30.16,ESE,105,7.0,-999.0,91,-99.99,,,0.00,weatherlink.com 1.10,2013-01-09 01:25:00,
2013-01-08 20:40:00,34.4,32.0,30.16,SE,132,12.0,-999.0,91,-99.99,,,0.00,weatherlink.com 1.10,2013-01-09 01:40:00,
2013-01-08 20:55:00,34.8,32.0,30.15,ESE,109,5.0,-999.0,90,-99.99,,,0.00,weatherlink.com 1.10,2013-01-09 01:55:00,
2013-01-08 21:10:00,35.3,33.0,30.13,ESE,122,8.0,-999.0,90,-99.99,,,0.00,weatherlink.com 1.10,2013-01-09 02:10:00,
2013-01-08 21:25:00,35.2,33.0,30.13,SE,128,9.0,-999.0,91,-99.99,,,0.00,weatherlink.com 1.10,2013-01-09 02:25:00,
2013-01-08 21:40:00,35.3,33.0,30.12,ESE,119,12.0,-999.0,91,-99.99,,,0.00,weatherlink.com 1.10,2013-01-09 02:40:00,
2013-01-08 21:55:00,35.2,33.0,30.12,ESE,103,6.0,-999.0,91,-99.99,,,0.00,weatherlink.com 1.10,2013-01-09 02:55:00,
2013-01-08 22:11:00,35.2,33.0,30.10,SSE,152,6.0,-999.0,91,-99.99,,,0.00,weatherlink.com 1.10,2013-01-09 03:11:00,
2013-01-08 22:26:00,35.2,33.0,30.10,SSE,148,9.0,-999.0,91,-99.99,,,0.00,weatherlink.com 1.10,2013-01-09 03:26:00,
2013-01-08 22:41:00,34.8,32.0,30.09,ESE,121,11.0,-999.0,90,-99.99,,,0.00,weatherlink.com 1.10,2013-01-09 03:41:00,
2013-01-08 22:56:00,34.4,32.0,30.10,SSE,157,5.0,-999.0,90,-99.99,,,0.00,weatherlink.com 1.10,2013-01-09 03:56:00,
2013-01-08 23:11:00,34.4,32.0,30.09,SE,138,11.0,-999.0,90,-99.99,,,0.00,weatherlink.com 1.10,2013-01-09 04:11:00,
2013-01-08 23:26:00,34.4,32.0,30.09,SE,138,6.0,-999.0,90,-99.99,,,0.00,weatherlink.com 1.10,2013-01-09 04:26:00,
2013-01-08 23:41:00,34.3,32.0,30.09,SE,134,7.0,-999.0,90,-99.99,,,0.00,weatherlink.com 1.10,2013-01-09 04:41:00,
2013-01-08 23:56:00,34.2,32.0,30.08,SE,138,8.0,-999.0,90,-99.99,,,0.00,weatherlink.com 1.10,2013-01-09 04:56:00,